Location: Catstown
(52.4386°N, 7.2633°W)
Time: 11:07:18
(UTC+00:00)

Cosmos 1833 Rocket - Pass Details

Date: 24 January 2021
Orbit: 833 x 839 km, 71.0° (Epoch: 24 February)

Event Time Altitude Azimuth Distance (km) Brightness Sun altitude
Rises 18:21:36 0° 329° (NNW) 3,393 6.0 -12.1°
Reaches altitude 10° 18:24:11 10° 337° (NNW) 2,456 5.2 -12.4°
Maximum altitude 18:29:31 42° 48° (NE) 1,177 3.1 -13.2°
Enters shadow 18:34:44 11° 118° (ESE) 2,408 4.6 -14.0°
